Zurück zum Katalog

STARLINK-37180

AktivKommunikationVLEO
NORAD 68333·PAYLOAD·🇺🇸 United States

Gestartet Mar 22, 2026 von Cape Canaveral Space Force Station

Loading…

Nächste Überflüge (nächste 24 Stunden)

TLE

AktuellSource: CelesTrak SupGP

Epoche: Sep 14, 2026, 23:06 UTC

1 68333C 26059N   26257.96298611 -.00079757  00000+0 -23540-2 0  2578
2 68333  53.1578 181.7650 0001245  91.2556  57.4826 15.34462730    10

Verfolge STARLINK-37180 in Echtzeit mit AllMySat

Download on the App Store